Total_Precipitation_Accumulation
0.93 1.03 1.06 0.85 0.61 0.49 0.47 0.45 0.44 0.47 0.52 0.60 0.55 0.52 0.58 0.62 0.59 0.66 0.75 0.86 0.94 1.00 1.01 1.03 1.09 1.15 1.22 1.24 1.32 1.34 1.33 1.22 0.93 0.81 0.70 0.59 0.59 0.57 0.58 0.50 0.50 0.49 0.42
0.80 0.79 0.65 0.47 0.37 0.34 0.30 0.25 0.22 0.22 0.22 0.29 0.32 0.32 0.40 0.51 0.52 0.57 0.61 0.63 0.68 0.72 0.75 0.80 0.86 0.92 1.00 1.05 1.09 1.12 1.19 1.23 1.10 0.94 0.79 0.65 0.59 0.60 0.71 0.73 0.68 0.61 0.59
0.44 0.42 0.39 0.32 0.30 0.26 0.21 0.19 0.17 0.16 0.16 0.20 0.23 0.26 0.29 0.39 0.50 0.56 0.58 0.53 0.52 0.50 0.50 0.54 0.62 0.69 0.78 0.84 0.88 0.94 1.04 1.09 1.14 1.00 0.92 0.82 0.68 0.63 0.72 0.73 0.76 0.88 0.83
0.25 0.23 0.22 0.23 0.23 0.23 0.23 0.23 0.18 0.14 0.16 0.15 0.14 0.16 0.24 0.34 0.43 0.51 0.55 0.51 0.48 0.48 0.48 0.47 0.48 0.50 0.54 0.64 0.75 0.91 1.01 1.13 1.18 1.08 1.04 1.00 0.87 0.78 0.82 0.88 0.94 0.99 1.04
0.15 0.15 0.18 0.18 0.18 0.18 0.20 0.20 0.17 0.14 0.12 0.08 0.06 0.08 0.16 0.21 0.26 0.40 0.45 0.45 0.47 0.45 0.46 0.49 0.49 0.44 0.41 0.44 0.46 0.62 0.79 0.98 1.11 1.14 1.13 1.13 1.05 0.95 0.87 0.94 1.04 1.13 1.20
0.03 0.05 0.08 0.11 0.13 0.15 0.15 0.15 0.13 0.11 0.09 0.07 0.05 0.05 0.07 0.08 0.14 0.21 0.30 0.40 0.47 0.50 0.50 0.53 0.50 0.44 0.46 0.43 0.41 0.44 0.52 0.64 0.80 0.90 0.97 1.01 1.04 1.08 1.12 1.15 1.19 1.24 1.30
0.01 0.01 0.02 0.03 0.04 0.05 0.05 0.05 0.05 0.04 0.04 0.03 0.04 0.04 0.04 0.04 0.04 0.07 0.17 0.33 0.47 0.48 0.47 0.60 0.67 0.59 0.57 0.60 0.61 0.52 0.44 0.41 0.52 0.69 0.82 0.86 0.92 0.99 1.15 1.21 1.24 1.25 1.17
0.00 0.00 0.00 0.01 0.01 0.02 0.02 0.02 0.02 0.02 0.02 0.03 0.04 0.07 0.04 0.02 0.02 0.03 0.08 0.23 0.38 0.42 0.42 0.54 0.78 0.82 0.72 0.68 0.72 0.81 0.70 0.52 0.48 0.52 0.67 0.75 0.78 0.91 1.19 1.37 1.32 1.13 1.07
0.00 0.00 0.00 0.00 0.01 0.01 0.01 0.01 0.00 0.01 0.02 0.02 0.03 0.05 0.04 0.03 0.02 0.03 0.06 0.17 0.27 0.32 0.36 0.47 0.63 0.79 0.73 0.68 0.69 0.75 0.77 0.65 0.56 0.55 0.50 0.56 0.66 0.81 1.04 1.27 1.34 1.26 1.14
0.00 0.00 0.00 0.00 0.01 0.01 0.01 0.01 0.01 0.01 0.02 0.02 0.01 0.01 0.01 0.01 0.02 0.03 0.05 0.10 0.15 0.15 0.22 0.38 0.53 0.53 0.50 0.55 0.67 0.78 0.86 0.70 0.59 0.64 0.61 0.62 0.64 0.81 1.10 1.26 1.30 1.23 1.11
0.00 0.00 0.01 0.01 0.01 0.02 0.02 0.02 0.01 0.01 0.02 0.02 0.02 0.02 0.02 0.01 0.02 0.03 0.05 0.07 0.09 0.09 0.14 0.28 0.37 0.34 0.34 0.41 0.53 0.66 0.79 0.65 0.66 0.78 0.79 0.75 0.81 0.86 0.98 1.08 1.20 1.23 1.11
0.00 0.01 0.01 0.01 0.01 0.01 0.03 0.02 0.01 0.01 0.02 0.03 0.05 0.05 0.05 0.04 0.02 0.03 0.05 0.07 0.08 0.09 0.15 0.21 0.25 0.22 0.22 0.26 0.33 0.45 0.56 0.63 0.71 0.82 0.87 0.80 0.77 0.83 0.87 0.90 0.97 1.03 0.98
0.00 0.01 0.00 0.01 0.01 0.01 0.01 0.01 0.01 0.01 0.01 0.02 0.04 0.06 0.06 0.07 0.04 0.02 0.03 0.05 0.06 0.10 0.13 0.17 0.18 0.19 0.22 0.24 0.27 0.35 0.49 0.67 0.84 0.83 0.76 0.70 0.71 0.77 0.76 0.84 0.91 0.95 0.93
0.00 0.00 0.00 0.00 0.01 0.02 0.01 0.00 0.01 0.01 0.01 0.01 0.02 0.04 0.05 0.07 0.04 0.03 0.05 0.07 0.08 0.11 0.13 0.13 0.14 0.19 0.22 0.23 0.29 0.40 0.55 0.74 0.82 0.74 0.69 0.58 0.58 0.70 0.73 0.71 0.73 0.75 0.80
0.00 0.00 0.00 0.00 0.01 0.02 0.01 0.00 0.00 0.00 0.00 0.01 0.02 0.03 0.02 0.03 0.02 0.01 0.03 0.05 0.05 0.06 0.10 0.16 0.21 0.28 0.34 0.40 0.50 0.57 0.58 0.62 0.68 0.61 0.64 0.58 0.54 0.60 0.60 0.57 0.56 0.51 0.54
0.00 0.00 0.00 0.00 0.01 0.01 0.02 0.01 0.00 0.00 0.00 0.00 0.00 0.01 0.02 0.00 0.00 0.01 0.01 0.02 0.02 0.05 0.12 0.21 0.29 0.37 0.43 0.50 0.55 0.56 0.55 0.56 0.59 0.56 0.54 0.54 0.48 0.47 0.48 0.46 0.46 0.46 0.47
0.00 0.00 0.00 0.00 0.00 0.00 0.01 0.03 0.03 0.02 0.01 0.00 0.00 0.00 0.00 0.00 0.00 0.01 0.01 0.02 0.02 0.04 0.10 0.22 0.42 0.47 0.43 0.47 0.51 0.49 0.42 0.35 0.35 0.37 0.36 0.34 0.33 0.34 0.36 0.36 0.36 0.37 0.38
0.00 0.00 0.00 0.00 0.00 0.00 0.00 0.00 0.01 0.03 0.04 0.04 0.02 0.00 0.00 0.00 0.00 0.01 0.01 0.03 0.03 0.03 0.06 0.13 0.26 0.30 0.32 0.36 0.34 0.31 0.24 0.18 0.18 0.18 0.17 0.18 0.19 0.21 0.23 0.26 0.25 0.24 0.26
0.00 0.00 0.00 0.00 0.00 0.00 0.00 0.00 0.00 0.00 0.01 0.03 0.03 0.01 0.00 0.00 0.00 0.00 0.01 0.02 0.03 0.04 0.06 0.10 0.14 0.16 0.16 0.15 0.14 0.13 0.11 0.10 0.09 0.09 0.11 0.13 0.13 0.14 0.13 0.13 0.16 0.19 0.18
0.00 0.00 0.00 0.00 0.00 0.00 0.00 0.00 0.00 0.00 0.01 0.01 0.01 0.01 0.01 0.02 0.03 0.02 0.01 0.02 0.02 0.03 0.04 0.05 0.05 0.05 0.04 0.04 0.04 0.05 0.06 0.07 0.07 0.06 0.06 0.08 0.09 0.09 0.09 0.08 0.07 0.08 0.10
0.00 0.00 0.00 0.00 0.00 0.00 0.00 0.00 0.00 0.00 0.01 0.01 0.00 0.00 0.00 0.01 0.02 0.02 0.02 0.02 0.02 0.02 0.02 0.01 0.01 0.01 0.01 0.01 0.02 0.02 0.03 0.06 0.07 0.06 0.05 0.05 0.06 0.07 0.07 0.06 0.05 0.05 0.06
0.00 0.00 0.00 0.00 0.00 0.00 0.00 0.00 0.01 0.01 0.01 0.01 0.01 0.00 0.00 0.01 0.01 0.02 0.02 0.02 0.01 0.01 0.01 0.01 0.01 0.01 0.01 0.01 0.01 0.01 0.02 0.04 0.07 0.06 0.05 0.04 0.04 0.05 0.04 0.04 0.04 0.05 0.04
0.00 0.00 0.00 0.00 0.00 0.00 0.00 0.00 0.01 0.01 0.02 0.01 0.01 0.01 0.01 0.01 0.01 0.02 0.02 0.01 0.01 0.01 0.01 0.01 0.01 0.02 0.01 0.01 0.01 0.01 0.01 0.03 0.06 0.08 0.08 0.07 0.04 0.03 0.02 0.02 0.02 0.03 0.03
0.00 0.00 0.00 0.00 0.00 0.00 0.00 0.00 0.00 0.01 0.02 0.02 0.02 0.01 0.01 0.01 0.01 0.01 0.02 0.02 0.02 0.02 0.02 0.02 0.02 0.03 0.03 0.03 0.02 0.01 0.01 0.02 0.05 0.08 0.10 0.10 0.07 0.04 0.03 0.02 0.01 0.01 0.02
0.00 0.00 0.00 0.00 0.00 0.00 0.00 0.00 0.00 0.01 0.02 0.02 0.02 0.02 0.01 0.01 0.01 0.01 0.01 0.01 0.02 0.02 0.03 0.03 0.03 0.04 0.04 0.04 0.04 0.03 0.02 0.01 0.02 0.05 0.08 0.10 0.10 0.08 0.06 0.04 0.02 0.01 0.01
0.00 0.00 0.00 0.00 0.00 0.00 0.00 0.00 0.00 0.01 0.02 0.02 0.01 0.01 0.01 0.01 0.01 0.01 0.01 0.01 0.02 0.02 0.03 0.03 0.04 0.04 0.04 0.05 0.06 0.06 0.04 0.02 0.01 0.02 0.06 0.09 0.11 0.10 0.08 0.06 0.04 0.03 0.02